Find Starlink 35728

NORAD ID: 66544 Int'l Des: 2025-265 Owner: SPXS Country: US Constellation: starlink operational
LEOCIRCULAR

当前视图

正在加载3D地球...

关于 Starlink 35728

正在加载描述...

即将过境

Passes for default location (London). Set your location on the main map for personalized predictions.

高度历史

Loading altitude history...

两行轨道根数

1 66544U 25265AE 26151.45412977 .00033957 00000-0 12375-2 0 9996
2 66544 43.0005 170.3074 0001707 275.6826 84.3831 15.27588019 29770
Epoch: May 31, 2026 • Age: 9 hours

当前状态

高度 482.5 km
速度 7.63 km/s
星下点 6.68°N, 159.5°E
发射日期 Nov 19, 2025
运行时间 0.5 years
类型 internet

技术详情

分类 Payload
质量 575.00 kg
干质量 530.00 kg
总质量 575.00 kg
长度 0.30 m
直径 4.10 m
跨度 29.00 m
形状 Box + pan
制造商 SPXS
平台类型 Starlink V2MO
阶段状态 In Orbit
所有者/国家 SPXS/US

Most Searched